When you browse on this site, cookies collect data to enhance your experience and personalize the content and advertising you see.
Visit our Privacy Policy to learn more. By continuing to use the site, you agree to this use of cookies and data.
  • In United Kingdom
  • List of Countries
  • For 7 days
  • Water Temperature
  • Satellite Maps
  • Weather Map
  • Weather Widgets
  • user-avatar
    Login

    Hourly Weather Butakara

    Today, 20 March, Wednesday

    Time Temperature Precipitation Wind Pressure Humidity
    00:00 +13°C° 0.1 mm 2 mps 708 mmHg 64%
    01:00 +13°C° 0.1 mm 2 mps 708 mmHg 68%
    02:00 +12°C° 0.1 mm 1 mps 708 mmHg 71%
    03:00 +12°C° 0.4 mm 1 mps 708 mmHg 75%
    04:00 +12°C° 0.4 mm 1 mps 709 mmHg 78%
    05:00 +11°C° 0.4 mm 1 mps 709 mmHg 82%
    06:00 +11°C° 0.5 mm 1 mps 709 mmHg 82%
    07:00 +11°C° 0.5 mm 1 mps 709 mmHg 83%
    08:00 +11°C° 0.5 mm 1 mps 709 mmHg 83%
    09:00 +12°C° 0.3 mm 1 mps 709 mmHg 79%
    10:00 +12°C° 0.3 mm 2 mps 709 mmHg 76%
    11:00 +13°C° 0.3 mm 2 mps 709 mmHg 72%
    12:00 +13°C° 0.1 mm 2 mps 709 mmHg 67%
    13:00 +14°C° 0.1 mm 2 mps 709 mmHg 62%
    14:00 +15°C° 0.1 mm 2 mps 708 mmHg 57%
    15:00 +15°C° 0 mm 2 mps 709 mmHg 55%
    16:00 +16°C° 0 mm 1 mps 709 mmHg 53%
    17:00 +16°C° 0 mm 1 mps 709 mmHg 51%
    18:00 +15°C° 0 mm 1 mps 709 mmHg 54%
    19:00 +15°C° 0 mm 1 mps 710 mmHg 57%
    20:00 +14°C° 0 mm 1 mps 710 mmHg 60%
    21:00 +14°C° 0.1 mm 1 mps 711 mmHg 61%
    22:00 +14°C° 0.1 mm 1 mps 711 mmHg 62%
    23:00 +13°C° 0.1 mm 2 mps 711 mmHg 63%

    Tomorrow, 21 March, Thursday

    Time Temperature Precipitation Wind Pressure Humidity
    00:00 +13°C° 0.1 mm 2 mps 711 mmHg 63%
    01:00 +13°C° 0.1 mm 2 mps 711 mmHg 63%
    02:00 +13°C° 0.1 mm 2 mps 711 mmHg 64%
    03:00 +12°C° 0.1 mm 2 mps 711 mmHg 63%
    04:00 +12°C° 0.1 mm 2 mps 711 mmHg 63%
    05:00 +12°C° 0.1 mm 2 mps 711 mmHg 63%
    06:00 +12°C° 0 mm 2 mps 712 mmHg 61%
    07:00 +13°C° 0 mm 2 mps 712 mmHg 59%
    08:00 +13°C° 0 mm 2 mps 712 mmHg 57%
    09:00 +14°C° 0 mm 1 mps 712 mmHg 54%
    10:00 +16°C° 0 mm 1 mps 712 mmHg 51%
    11:00 +16°C° 0 mm 0 mps 712 mmHg 48%
    12:00 +18°C° 0 mm 1 mps 712 mmHg 45%
    13:00 +19°C° 0 mm 1 mps 712 mmHg 43%
    14:00 +19°C° 0 mm 1 mps 712 mmHg 41%
    15:00 +19°C° 0 mm 1 mps 712 mmHg 40%
    16:00 +19°C° 0 mm 1 mps 712 mmHg 39%
    17:00 +19°C° 0 mm 1 mps 712 mmHg 38%
    18:00 +19°C° 0 mm 1 mps 712 mmHg 40%
    19:00 +18°C° 0 mm 1 mps 713 mmHg 43%
    20:00 +16°C° 0 mm 1 mps 713 mmHg 45%
    21:00 +15°C° 0 mm 2 mps 713 mmHg 46%
    22:00 +15°C° 0 mm 2 mps 713 mmHg 47%
    23:00 +13°C° 0 mm 3 mps 714 mmHg 48%

    Day after tomorrow, 22 March, Friday

    Time Temperature Precipitation Wind Pressure Humidity
    00:00 +12°C° 0 mm 3 mps 713 mmHg 48%
    01:00 +12°C° 0 mm 3 mps 713 mmHg 48%
    02:00 +12°C° 0 mm 3 mps 713 mmHg 49%
    03:00 +11°C° 0 mm 3 mps 713 mmHg 49%
    04:00 +11°C° 0 mm 3 mps 713 mmHg 49%
    05:00 +11°C° 0 mm 3 mps 713 mmHg 49%
    06:00 +11°C° 0 mm 3 mps 713 mmHg 47%
    07:00 +13°C° 0 mm 2 mps 713 mmHg 45%
    08:00 +13°C° 0 mm 2 mps 713 mmHg 44%
    09:00 +15°C° 0 mm 2 mps 713 mmHg 39%
    10:00 +17°C° 0 mm 2 mps 712 mmHg 35%
    11:00 +18°C° 0 mm 2 mps 712 mmHg 30%
    12:00 +19°C° 0 mm 2 mps 711 mmHg 28%
    13:00 +20°C° 0 mm 2 mps 711 mmHg 26%
    14:00 +21°C° 0 mm 2 mps 710 mmHg 23%
    15:00 +21°C° 0 mm 2 mps 710 mmHg 23%
    16:00 +21°C° 0 mm 2 mps 710 mmHg 24%
    17:00 +21°C° 0 mm 3 mps 710 mmHg 24%
    18:00 +19°C° 0 mm 3 mps 710 mmHg 28%
    19:00 +18°C° 0 mm 3 mps 711 mmHg 32%
    20:00 +16°C° 0 mm 3 mps 711 mmHg 36%
    21:00 +16°C° 0 mm 3 mps 711 mmHg 36%
    22:00 +14°C° 0 mm 3 mps 711 mmHg 36%
    23:00 +13°C° 0 mm 3 mps 711 mmHg 36%

    23 March, Saturday

    Time Temperature Precipitation Wind Pressure Humidity
    00:00 +13°C° 0 mm 3 mps 710 mmHg 36%
    01:00 +12°C° 0 mm 3 mps 710 mmHg 36%
    02:00 +12°C° 0 mm 3 mps 710 mmHg 35%
    03:00 +11°C° 0 mm 3 mps 710 mmHg 36%
    04:00 +11°C° 0 mm 3 mps 710 mmHg 36%
    05:00 +11°C° 0 mm 3 mps 710 mmHg 36%
    06:00 +12°C° 0 mm 2 mps 710 mmHg 35%
    07:00 +13°C° 0 mm 2 mps 710 mmHg 34%
    08:00 +14°C° 0 mm 1 mps 710 mmHg 33%
    09:00 +15°C° 0 mm 1 mps 710 mmHg 31%
    10:00 +16°C° 0 mm 1 mps 710 mmHg 28%
    11:00 +18°C° 0 mm 1 mps 710 mmHg 25%
    12:00 +19°C° 0 mm 1 mps 710 mmHg 23%
    13:00 +19°C° 0 mm 2 mps 710 mmHg 21%
    14:00 +20°C° 0 mm 2 mps 710 mmHg 19%
    15:00 +20°C° 0 mm 3 mps 711 mmHg 20%
    16:00 +20°C° 0 mm 3 mps 711 mmHg 22%
    17:00 +20°C° 0 mm 4 mps 711 mmHg 23%
    18:00 +18°C° 0 mm 4 mps 712 mmHg 31%
    19:00 +17°C° 0 mm 4 mps 713 mmHg 39%
    20:00 +16°C° 0 mm 3 mps 714 mmHg 47%
    21:00 +14°C° 0 mm 3 mps 713 mmHg 51%
    22:00 +14°C° 0 mm 2 mps 713 mmHg 55%
    23:00 +14°C° 0 mm 1 mps 713 mmHg 60%

    24 March, Sunday

    Time Temperature Precipitation Wind Pressure Humidity
    00:00 +13°C° 0 mm 1 mps 713 mmHg 60%
    01:00 +13°C° 0 mm 1 mps 713 mmHg 60%
    02:00 +12°C° 0 mm 1 mps 713 mmHg 60%
    03:00 +12°C° 0 mm 1 mps 713 mmHg 58%
    04:00 +12°C° 0 mm 1 mps 713 mmHg 56%
    05:00 +11°C° 0 mm 1 mps 713 mmHg 54%
    06:00 +12°C° 0 mm 1 mps 713 mmHg 51%
    07:00 +13°C° 0 mm 1 mps 713 mmHg 48%
    08:00 +13°C° 0 mm 1 mps 712 mmHg 44%
    09:00 +15°C° 0 mm 1 mps 712 mmHg 39%
    10:00 +16°C° 0 mm 1 mps 712 mmHg 34%
    11:00 +17°C° 0 mm 0 mps 711 mmHg 29%
    12:00 +18°C° 0 mm 0 mps 711 mmHg 26%
    13:00 +21°C° 0 mm 1 mps 711 mmHg 23%
    14:00 +22°C° 0 mm 1 mps 710 mmHg 21%
    15:00 +22°C° 0 mm 1 mps 710 mmHg 20%
    16:00 +22°C° 0 mm 1 mps 710 mmHg 19%
    17:00 +22°C° 0 mm 1 mps 710 mmHg 19%
    18:00 +20°C° 0 mm 1 mps 711 mmHg 22%
    19:00 +18°C° 0 mm 2 mps 711 mmHg 25%
    20:00 +17°C° 0 mm 2 mps 712 mmHg 27%
    21:00 +16°C° 0 mm 3 mps 712 mmHg 29%
    22:00 +14°C° 0 mm 3 mps 712 mmHg 31%
    23:00 +14°C° 0 mm 4 mps 712 mmHg 33%

    25 March, Monday

    Time Temperature Precipitation Wind Pressure Humidity
    00:00 +13°C° 0 mm 4 mps 712 mmHg 33%
    01:00 +13°C° 0 mm 4 mps 712 mmHg 32%
    02:00 +12°C° 0 mm 4 mps 712 mmHg 32%
    03:00 +12°C° 0 mm 4 mps 711 mmHg 32%
    04:00 +12°C° 0 mm 3 mps 711 mmHg 33%
    05:00 +11°C° 0 mm 3 mps 711 mmHg 33%
    06:00 +12°C° 0 mm 3 mps 711 mmHg 32%
    07:00 +13°C° 0 mm 3 mps 710 mmHg 31%
    08:00 +14°C° 0 mm 3 mps 710 mmHg 30%
    09:00 +17°C° 0 mm 3 mps 710 mmHg 25%
    10:00 +19°C° 0 mm 2 mps 709 mmHg 21%
    11:00 +23°C° 0 mm 2 mps 709 mmHg 16%
    12:00 +23°C° 0 mm 2 mps 708 mmHg 15%
    13:00 +24°C° 0 mm 2 mps 707 mmHg 13%
    14:00 +25°C° 0 mm 2 mps 707 mmHg 12%
    15:00 +25°C° 0 mm 2 mps 706 mmHg 13%
    16:00 +25°C° 0 mm 2 mps 706 mmHg 14%
    17:00 +25°C° 0 mm 3 mps 706 mmHg 16%
    18:00 +23°C° 0 mm 2 mps 706 mmHg 18%
    19:00 +20°C° 0 mm 2 mps 707 mmHg 21%
    20:00 +19°C° 0 mm 2 mps 707 mmHg 23%
    21:00 +18°C° 0 mm 2 mps 707 mmHg 23%
    22:00 +18°C° 0 mm 2 mps 707 mmHg 24%
    23:00 +18°C° 0 mm 2 mps 708 mmHg 24%
    Show more